Location: Newark
(46.7000°N, 60.6000°W)
Time: 05:50:51
(UTC+00:00)

Transit 2A Rocket - Pass Details

Date: 03 November 2020
Orbit: 588 x 914 km, 66.7° (Epoch: 27 November)

Event Time Altitude Azimuth Distance (km) Brightness Sun altitude
Rises 18:30:17 0° 329° (NNW) 3,366 8.2 17.8°
Reaches altitude 10° 18:33:52 10° 351° (N) 2,360 7.2 17.4°
Maximum altitude 18:37:02 16° 27° (NNE) 1,932 6.6 17.0°
Drops below altitude 10° 18:40:04 10° 64° (ENE) 2,223 6.9 16.6°
Sets 18:43:17 0° 87° (E) 3,068 7.7 16.3°
